Theta_e
322 321 323 322 321 319 322 322 328 334 330 333 334 333 329 326 327 325 327 326 324 322 316 313 313 312 313 314 314 315 313 316 323 320 322 330 316 314 322 317 314 315 317 319 317 314 318 325 327 332 332 331 331 330 331 327 327 326 325 321 318 315 312 317 315 315 318 319 323 321 321 323 320 319 318 317 318 316 318 323 323 323 323 323 323 323 324 324 325 325 324 324 325 325 326 326 326
321 319 321 321 320 319 326 325 328 336 332 331 333 332 330 327 324 325 329 325 326 324 318 314 313 313 313 313 312 313 316 315 316 318 321 319 313 316 320 318 313 313 318 318 317 314 316 324 328 332 332 331 331 331 331 328 328 326 326 321 317 314 312 320 317 316 320 320 324 320 321 323 318 318 317 317 318 316 319 323 323 323 322 321 321 322 323 324 325 324 324 324 325 325 325 326 326
320 320 321 319 320 318 325 326 329 337 332 331 331 330 329 328 326 326 328 325 328 323 319 316 313 314 312 314 313 314 319 317 313 316 318 314 315 314 317 318 312 313 317 316 318 315 313 321 329 333 332 332 331 331 330 329 329 326 328 322 317 317 314 319 316 315 321 322 323 321 321 322 318 317 317 316 316 317 320 322 321 320 320 317 316 321 323 323 324 323 324 324 325 326 325 326 326
321 321 321 316 319 321 326 327 332 336 329 331 331 330 329 328 328 326 327 327 326 318 316 315 314 313 311 316 314 313 317 318 313 314 317 314 315 313 314 316 313 313 316 316 316 316 313 317 328 333 331 333 332 331 331 329 328 326 328 324 320 320 318 318 317 317 322 323 322 323 324 322 320 319 317 316 317 319 320 319 317 315 315 313 312 318 323 323 323 323 324 324 325 325 325 326 325
323 324 321 315 320 324 327 327 333 333 327 332 330 329 329 327 327 326 327 326 323 319 316 314 316 314 310 314 313 315 319 319 313 309 314 314 315 314 314 314 314 313 314 316 315 316 315 315 326 332 331 332 332 332 331 329 329 328 327 325 323 323 320 319 321 320 321 323 322 324 325 321 320 318 318 319 319 319 319 318 316 314 313 311 309 315 322 323 323 323 324 324 324 325 326 325 324
323 326 320 314 319 322 325 325 329 328 327 334 328 328 330 328 327 324 326 324 322 320 316 314 315 314 313 314 312 314 317 316 312 310 312 313 315 314 314 314 313 314 314 315 314 316 315 313 322 330 331 331 333 331 331 330 329 329 328 326 324 324 322 321 322 321 321 323 322 323 324 322 320 318 318 320 319 318 318 317 315 313 312 309 306 310 320 323 322 323 323 324 324 325 325 324 323
322 329 324 319 321 320 326 327 326 325 326 330 326 326 328 328 326 321 323 323 323 320 314 314 313 314 316 315 313 314 312 311 312 312 312 312 314 314 314 313 313 314 315 315 315 315 315 313 317 329 332 332 333 331 331 331 330 330 328 327 326 324 324 324 323 322 322 321 320 321 321 320 320 318 318 320 319 318 317 317 315 313 310 308 305 307 316 321 322 322 323 323 324 325 324 323 323
320 330 327 323 326 322 326 327 325 325 325 327 325 324 325 327 324 320 323 322 324 323 318 317 313 315 319 314 315 315 310 311 312 312 312 312 313 315 314 313 313 313 315 316 315 315 315 314 314 324 331 332 332 331 331 330 330 329 328 328 327 326 325 325 324 323 321 318 318 319 321 320 319 316 317 318 318 318 317 317 315 313 311 307 307 307 313 319 321 322 322 322 324 324 323 323 324
320 328 327 324 327 325 325 326 325 325 325 325 324 324 324 324 322 320 322 322 323 324 323 319 314 318 321 316 316 315 312 313 312 311 311 312 312 314 315 312 313 312 314 316 315 315 315 315 314 318 327 331 332 332 331 330 330 328 328 328 327 326 326 325 324 323 321 319 318 318 320 320 318 315 315 316 313 315 317 317 315 313 312 308 308 310 313 318 321 322 321 322 324 323 322 323 324
321 326 328 328 329 328 327 326 325 326 325 326 324 323 323 322 322 322 321 322 322 323 323 317 314 318 320 316 317 316 315 314 312 313 312 312 312 313 315 313 313 313 313 315 316 317 315 316 316 317 323 329 331 332 331 330 330 328 328 327 327 327 326 325 324 324 323 321 320 319 320 319 316 313 315 315 310 311 313 314 312 310 310 306 306 308 311 315 318 319 320 321 323 322 322 323 324
323 322 324 328 330 330 330 327 326 326 326 327 324 321 322 321 321 322 322 322 321 323 322 315 315 317 315 315 319 317 313 314 313 314 313 312 312 313 315 314 314 314 313 314 315 317 317 316 316 317 320 325 329 331 331 330 330 329 328 328 327 326 325 325 324 324 324 323 322 321 321 319 315 313 317 317 310 307 309 310 308 306 306 304 304 305 306 309 314 316 318 321 322 321 323 324 323
323 322 320 326 329 329 329 328 326 325 325 325 323 321 324 323 321 322 322 322 322 322 321 316 317 317 314 316 319 315 312 315 315 314 314 312 313 313 315 315 314 314 314 315 315 317 317 317 317 316 318 320 325 329 331 330 330 329 328 328 327 326 325 325 325 324 324 323 323 322 322 320 315 313 318 318 310 305 306 306 305 304 303 303 303 303 303 304 309 313 317 320 321 321 323 323 323
322 324 322 326 327 326 327 326 325 325 326 324 322 322 324 323 322 324 323 323 322 322 322 317 315 313 315 318 318 316 315 316 315 313 314 313 313 314 315 315 315 315 315 315 316 316 317 318 317 316 317 318 321 326 330 330 329 329 328 328 327 326 326 325 325 324 324 324 323 323 322 321 317 315 318 318 311 304 304 303 303 303 303 303 303 303 302 302 307 312 316 319 320 321 322 323 322
320 324 323 327 328 325 326 325 325 326 326 324 324 323 322 322 322 324 323 323 322 322 322 316 313 313 316 317 317 319 318 315 313 313 314 313 314 314 315 316 316 316 315 315 315 316 317 317 317 317 316 317 319 322 328 329 328 328 327 327 326 326 326 325 325 324 324 324 324 323 322 322 319 318 319 319 313 304 304 303 302 303 303 303 303 304 302 302 306 310 316 319 320 321 322 322 322
319 323 322 327 327 325 326 325 325 326 324 323 325 325 322 323 323 324 324 323 323 320 318 314 311 315 318 317 319 321 316 312 312 313 313 314 315 315 316 316 316 316 315 315 315 315 316 317 317 317 316 316 317 319 324 327 327 327 326 326 326 326 325 325 325 324 324 324 323 322 322 322 320 318 317 318 314 305 304 303 303 303 303 303 303 303 302 302 305 309 315 318 319 321 321 322 321
319 323 322 326 325 323 325 325 325 326 325 325 326 324 322 323 322 322 321 319 321 318 316 316 312 313 320 319 318 316 312 311 312 313 314 315 315 316 317 317 317 316 316 315 315 315 315 316 316 316 316 315 315 316 319 322 324 325 326 325 325 325 324 325 324 324 324 323 323 323 323 321 319 316 315 316 313 306 304 303 302 303 303 303 303 303 302 301 305 310 315 318 319 321 322 322 321
319 320 322 323 323 323 324 324 327 326 323 326 327 322 319 322 321 318 315 314 316 315 315 316 312 311 316 316 313 311 310 311 311 313 314 315 315 316 316 317 317 316 315 315 315 315 315 315 316 316 315 315 314 315 316 318 320 323 325 325 325 324 323 324 323 323 323 323 323 322 323 321 317 313 312 313 311 306 304 303 302 303 303 303 303 303 302 301 306 312 315 318 319 320 322 322 320
318 321 322 321 322 323 324 326 328 324 320 325 326 320 317 320 320 316 316 316 316 316 314 313 313 312 312 311 310 309 310 309 310 312 314 315 314 314 315 315 316 316 315 315 315 315 316 315 315 316 316 315 315 314 315 316 318 321 323 324 325 324 322 323 323 323 322 322 322 321 322 320 316 311 309 309 308 306 303 303 302 302 303 303 303 303 302 302 308 313 315 318 319 319 320 320 319
319 323 321 320 322 322 324 326 325 323 320 323 323 319 317 318 318 315 318 320 318 318 316 314 315 315 314 313 311 309 309 309 310 312 313 314 313 313 313 314 314 315 314 314 314 314 315 315 315 316 316 316 315 314 314 315 316 318 322 324 325 324 322 322 322 321 321 321 320 320 320 319 315 310 309 308 307 306 303 302 302 302 303 303 303 303 301 302 309 314 315 318 319 319 319 319 318
319 322 318 320 324 321 322 323 322 322 320 320 320 319 318 318 317 316 318 320 319 319 318 317 317 317 318 317 315 310 308 309 309 310 312 312 312 312 312 312 313 314 314 313 313 313 314 314 315 315 316 317 316 315 315 315 316 317 320 322 324 324 323 322 321 320 319 320 319 318 318 317 314 311 309 308 308 306 303 302 302 302 303 303 303 303 301 303 309 314 316 318 319 319 319 318 318
317 318 317 319 322 319 319 321 320 320 319 318 318 319 318 317 317 316 318 319 319 319 318 318 317 317 317 317 316 311 311 311 308 308 309 310 311 312 312 313 313 313 313 313 313 313 313 313 313 314 315 317 316 316 316 316 317 318 320 322 323 323 323 323 321 320 319 318 318 317 316 315 313 310 309 308 307 305 303 302 302 303 303 303 303 303 301 303 309 314 317 319 319 319 318 318 317
316 317 317 318 317 316 317 320 319 319 318 317 317 318 317 316 316 316 317 318 318 318 318 318 317 316 316 316 315 313 315 316 312 311 309 309 310 310 312 312 312 312 313 313 313 313 313 312 312 313 315 316 317 317 317 318 318 319 321 321 322 323 323 322 321 320 319 317 317 316 315 314 311 309 308 307 306 304 303 302 302 303 304 303 303 303 301 302 310 315 318 319 319 319 318 317 317
313 315 318 318 316 315 315 316 316 316 316 315 315 316 315 314 315 315 316 316 315 316 316 316 316 315 314 314 313 313 315 316 314 312 310 309 309 309 311 311 312 312 313 313 313 313 313 313 312 313 315 315 316 316 318 319 319 320 321 322 322 323 322 322 321 320 319 317 317 317 315 312 310 308 306 306 305 304 303 302 302 303 305 304 303 303 301 303 310 315 318 319 319 318 318 317 316
312 313 316 316 314 314 313 314 314 315 314 314 313 313 313 313 313 313 313 314 313 313 313 313 314 314 313 313 313 313 313 314 313 310 308 309 310 310 312 312 312 312 312 312 313 313 313 313 312 312 314 315 315 316 318 318 318 320 321 322 322 322 321 321 320 319 319 318 317 317 315 312 309 308 306 304 304 304 303 302 302 304 306 305 303 303 302 305 311 316 318 319 319 318 317 317 316
312 312 314 313 312 313 313 313 313 313 312 311 311 311 312 311 311 312 312 312 312 312 312 312 312 312 312 312 312 312 312 313 312 309 308 309 310 311 312 312 312 311 310 312 312 313 313 313 313 312 312 314 314 316 317 317 318 320 321 321 321 321 320 319 319 319 319 318 317 316 315 313 310 308 305 303 303 304 303 302 303 305 306 305 304 303 304 308 313 316 318 319 319 318 318 317 316
311 311 311 312 312 312 312 312 312 312 311 311 311 311 311 310 310 310 311 311 311 311 311 311 311 311 311 311 311 311 311 312 312 311 310 310 310 310 310 311 310 310 311 311 311 312 313 313 312 312 312 312 314 315 316 316 317 319 320 319 319 319 319 318 319 319 318 318 317 315 314 313 310 308 306 304 304 304 303 302 302 305 306 305 304 304 306 310 314 316 317 318 319 319 318 317 316
309 309 309 309 309 309 310 311 311 310 309 310 311 310 310 309 309 310 311 312 311 310 310 311 310 310 310 310 310 310 310 311 311 311 311 311 311 309 309 310 310 310 310 310 311 312 312 312 312 312 312 312 313 315 315 315 317 317 317 318 318 318 318 318 319 318 318 317 316 315 314 312 311 309 307 306 304 303 303 303 302 305 306 305 305 305 306 310 314 314 315 316 317 318 318 316 316
307 307 307 309 308 307 307 308 308 307 309 312 311 309 309 309 309 309 310 311 311 310 311 311 310 309 309 309 310 310 311 310 308 309 311 311 310 309 309 309 309 310 309 309 311 311 311 311 311 312 312 312 313 314 314 315 316 316 316 317 317 317 317 318 318 318 317 316 316 315 313 313 312 310 309 307 305 304 303 303 302 305 307 305 305 305 306 310 312 313 313 314 316 317 318 316 315
307 306 308 309 308 307 307 307 307 306 309 312 309 308 309 309 309 309 308 309 309 310 310 310 309 309 309 309 309 309 309 308 307 308 308 308 308 308 308 309 309 308 309 309 309 309 310 310 311 311 311 311 312 313 313 314 315 315 316 316 316 317 317 317 317 317 316 316 315 314 313 313 312 311 310 308 306 305 303 303 303 304 307 306 305 306 306 308 310 310 312 313 315 317 317 316 315
308 307 307 307 307 309 308 307 306 306 309 309 308 309 310 310 310 309 309 309 309 309 309 308 309 308 309 309 308 309 308 308 308 307 306 306 307 307 307 308 308 308 308 308 308 308 309 310 310 310 310 310 311 312 313 313 314 315 315 316 316 316 317 317 316 316 316 315 314 314 313 312 312 312 311 309 308 306 304 303 303 304 307 307 306 306 307 307 307 308 310 312 315 316 316 315 315
310 309 308 308 308 310 311 308 306 307 308 309 309 309 308 309 309 308 308 308 309 309 308 308 308 308 308 309 309 309 308 308 307 305 306 306 306 306 306 306 307 306 307 307 307 308 308 309 309 309 309 310 310 311 312 313 313 314 315 315 315 316 316 316 316 315 315 314 314 314 313 312 312 312 311 310 309 307 305 303 302 304 306 307 307 307 307 307 307 306 308 312 315 316 315 315 314
313 310 310 312 309 309 310 308 308 309 308 306 308 309 308 308 308 309 308 307 308 308 308 307 307 308 308 308 308 307 306 305 304 303 303 304 304 304 304 305 306 305 306 306 307 307 308 308 308 309 309 309 310 310 311 311 312 313 314 314 314 315 315 315 315 315 315 314 314 313 312 311 311 311 311 311 310 308 305 304 302 303 306 307 307 306 307 307 307 306 308 312 315 316 315 315 314
312 309 309 312 310 309 309 309 310 309 307 305 307 309 309 307 308 311 310 307 308 307 307 306 306 307 306 306 305 304 304 304 304 303 302 303 303 303 304 304 305 305 305 306 306 306 306 307 307 308 309 309 309 310 310 311 312 312 313 314 314 314 314 314 314 314 314 314 313 313 312 311 310 310 310 310 310 308 306 304 303 303 306 307 307 307 306 307 307 306 309 314 315 316 315 315 314
309 308 309 310 309 309 308 309 310 308 305 305 307 307 307 307 307 308 308 307 307 306 306 306 306 306 305 305 305 305 305 305 306 305 304 304 304 304 304 305 305 305 305 305 305 306 306 306 307 307 308 308 309 309 309 310 311 312 312 313 313 313 314 314 314 314 314 313 313 312 312 311 310 309 309 309 310 310 307 305 303 303 305 307 307 307 306 307 307 306 309 314 315 316 316 315 314
308 309 309 310 309 309 308 308 309 308 306 306 307 307 307 307 306 307 306 306 306 306 305 306 306 306 306 306 305 305 305 305 306 306 304 304 304 304 304 304 304 304 304 305 305 305 305 306 306 306 307 308 308 309 309 309 310 311 312 312 313 313 313 313 313 313 313 313 313 312 312 311 310 309 309 309 311 311 309 307 305 304 305 307 307 307 307 306 306 306 309 312 314 315 315 314 314
307 310 310 311 311 309 309 308 307 307 307 308 307 307 307 307 307 307 306 306 306 306 305 305 306 306 306 306 306 305 305 305 306 304 304 304 304 304 304 304 304 304 304 304 304 304 305 305 305 306 306 307 308 308 309 309 310 310 311 312 312 312 312 312 313 313 313 313 312 312 312 311 311 310 310 311 312 311 309 307 306 304 305 307 308 307 307 306 306 306 308 310 312 313 314 313 312
308 309 310 311 310 308 307 307 307 306 307 309 309 308 307 306 306 306 306 307 307 306 306 306 306 306 306 306 306 306 306 306 306 304 302 303 304 304 304 304 304 304 303 303 303 303 304 304 305 305 306 307 308 308 309 309 309 310 310 311 311 312 312 312 312 312 312 312 312 312 312 312 312 311 311 312 313 311 308 308 307 306 306 307 308 308 307 306 306 306 307 310 312 312 313 312 311
308 309 309 309 308 307 306 307 308 306 308 310 310 308 307 306 307 307 307 307 307 307 307 306 307 306 307 307 307 307 306 306 306 306 303 302 302 303 304 306 306 306 306 305 304 303 303 304 304 305 306 307 308 308 309 309 309 310 310 311 311 311 312 312 312 312 312 312 312 312 312 312 312 312 312 313 313 310 308 308 308 306 306 307 308 308 307 306 306 306 307 309 312 313 313 312 311
308 308 308 308 308 308 308 309 310 307 307 311 310 308 308 308 307 307 308 307 307 308 307 307 307 307 308 307 308 307 307 307 307 307 307 303 301 304 307 307 306 306 306 305 304 303 303 303 304 305 306 307 308 308 309 309 309 310 310 310 310 311 311 311 312 312 312 312 312 312 312 312 312 312 313 313 313 309 307 308 308 307 307 307 308 308 307 306 307 307 307 308 310 312 312 312 311
309 309 309 308 308 309 309 311 313 310 308 309 309 308 308 308 309 311 309 308 310 310 309 309 308 309 309 308 309 309 308 308 308 307 308 307 305 306 308 307 306 305 306 306 304 304 303 304 304 305 306 307 308 309 309 309 309 309 309 309 310 310 310 311 311 311 311 312 312 312 313 313 313 313 313 313 313 309 307 308 308 308 307 307 308 308 307 307 307 307 307 307 308 310 311 311 311
311 310 309 308 309 310 309 310 311 311 311 309 309 311 314 316 316 315 311 311 312 311 310 312 311 310 309 309 310 309 308 308 309 310 310 312 315 313 309 308 308 307 307 307 306 306 306 305 305 305 306 307 308 309 309 309 309 308 308 308 309 309 309 309 309 309 310 311 311 312 312 312 313 313 313 313 312 310 308 308 309 308 308 307 307 308 308 307 307 307 307 307 307 309 310 310 310
314 314 311 310 310 310 310 310 309 313 318 313 310 314 320 321 316 312 312 314 314 310 310 313 313 312 310 310 309 308 308 308 308 310 310 312 319 318 311 308 310 309 308 308 308 308 308 307 307 306 306 307 308 309 309 309 309 308 308 308 308 308 307 307 308 309 309 309 310 310 311 312 312 312 312 312 312 310 308 309 309 309 308 307 307 308 308 307 306 307 306 306 306 309 311 310 310
314 316 314 311 310 310 311 312 311 314 319 314 310 315 317 315 312 313 316 317 315 311 311 313 313 312 311 309 307 306 306 308 310 312 312 314 319 323 319 310 309 311 310 309 308 308 308 309 308 307 307 307 308 309 309 309 309 308 309 309 308 308 307 308 308 309 309 309 309 310 311 311 311 312 312 312 311 310 309 309 309 309 308 307 307 307 307 307 307 306 306 306 306 309 312 311 310
316 315 315 315 313 313 315 313 312 315 316 312 311 314 316 315 314 315 315 314 314 312 312 314 313 313 313 313 312 310 309 310 314 319 319 318 322 327 321 312 310 311 310 310 310 309 308 308 309 308 308 308 309 309 309 309 309 309 309 308 308 308 308 308 308 309 309 309 309 309 310 310 310 311 311 311 311 310 310 310 310 309 309 308 307 307 307 307 307 306 306 306 306 309 312 312 311
318 314 312 315 314 316 316 313 314 317 313 312 314 312 314 320 318 314 313 312 314 315 315 316 316 314 315 319 320 318 316 314 317 323 325 325 329 324 310 306 310 310 310 311 310 310 308 307 308 309 309 309 309 309 309 309 309 309 309 308 308 308 308 308 308 308 308 308 308 308 309 309 309 309 310 310 310 310 310 310 310 310 309 308 308 307 307 307 307 306 305 305 306 307 310 312 312
313 310 311 315 317 317 316 313 315 316 313 313 316 312 312 318 317 313 314 315 317 319 318 319 319 317 315 318 323 322 322 322 323 326 329 331 326 313 304 305 308 309 310 311 310 310 309 307 307 308 309 309 309 310 310 309 309 309 309 308 308 308 308 307 308 308 308 308 308 308 308 308 308 309 309 309 310 310 310 310 310 310 309 308 308 308 307 307 307 306 305 305 305 306 307 310 312
310 310 313 316 318 317 317 318 316 314 317 316 314 313 311 314 318 317 316 316 317 316 318 321 320 320 317 315 321 325 325 327 328 327 330 328 314 303 303 307 307 308 310 310 310 310 309 308 307 307 308 309 310 310 310 310 309 309 309 309 308 308 308 307 307 307 307 307 307 308 308 308 308 308 308 309 309 309 310 310 310 310 309 308 308 308 307 307 307 306 305 305 305 305 305 307 311
312 315 316 316 319 317 317 321 316 315 321 317 312 312 310 313 319 320 316 312 311 311 313 317 317 318 316 314 318 321 322 326 328 328 330 330 321 312 310 309 306 309 310 309 311 310 309 309 307 307 307 307 309 309 310 310 310 309 309 309 309 308 308 308 307 308 307 307 308 308 308 307 307 307 307 308 308 309 309 309 309 309 309 308 308 308 307 307 307 306 305 305 305 306 305 306 308
311 316 318 318 320 319 319 320 317 318 320 314 310 311 310 312 314 312 312 310 310 310 310 311 313 313 313 315 316 314 316 322 324 326 328 333 334 328 325 319 307 306 310 310 310 310 309 309 308 308 307 307 307 308 309 310 310 310 310 309 309 308 308 308 308 308 308 308 308 308 307 307 307 307 307 307 308 308 308 308 309 308 308 308 308 308 307 307 307 306 306 305 305 306 305 305 306
311 315 319 319 319 320 321 320 315 315 315 309 307 310 312 314 313 311 311 310 310 310 309 310 310 310 310 313 313 310 312 318 322 325 327 334 338 333 334 326 307 304 308 309 309 309 309 309 308 308 308 307 307 307 307 309 309 310 310 309 309 309 308 308 308 308 308 308 308 308 308 308 307 307 307 308 308 308 308 308 308 308 308 308 308 308 307 307 307 306 306 305 305 305 305 305 305
312 315 316 317 321 321 322 320 314 313 316 311 306 310 318 320 317 313 310 310 310 308 308 310 310 310 309 310 311 311 312 315 322 326 326 331 334 335 336 319 301 303 308 307 308 309 308 308 308 308 308 307 307 307 307 308 309 309 310 309 309 309 309 309 308 308 308 308 308 308 308 308 308 308 308 308 308 308 308 308 308 308 308 308 308 307 307 307 307 306 306 305 305 305 305 305 305
311 312 312 316 319 316 315 314 310 309 312 313 311 313 320 319 314 311 309 309 309 309 310 310 309 308 307 309 310 310 311 313 319 325 328 329 329 337 338 314 299 303 307 307 308 308 308 308 308 308 308 307 307 307 307 307 308 308 309 309 309 309 309 309 309 308 308 308 308 308 308 308 308 308 308 308 308 308 308 308 308 308 308 308 308 307 307 307 307 306 306 305 305 305 305 305 305
312 311 314 315 310 309 313 311 308 307 308 313 314 314 317 314 312 314 314 313 313 315 316 313 310 307 309 314 311 308 309 311 315 319 324 327 328 335 326 304 300 305 307 308 309 308 309 308 307 307 307 306 307 306 306 307 307 307 308 308 309 309 309 309 309 308 308 308 308 308 308 308 308 308 308 308 308 308 308 308 308 308 308 308 308 307 307 307 307 306 306 306 305 305 305 305 305
312 314 315 311 305 309 313 311 313 313 313 315 313 312 313 312 315 320 318 316 315 315 315 314 314 312 315 319 316 313 310 308 312 314 316 322 327 333 320 301 302 308 307 308 308 307 308 308 307 307 307 307 307 306 306 306 306 307 307 307 308 308 308 309 308 309 308 308 307 307 307 308 308 308 308 308 308 308 308 308 307 308 308 307 308 307 307 307 307 306 306 306 306 305 305 305 304
309 312 310 309 312 317 312 310 317 316 313 317 315 313 311 308 315 321 314 314 316 314 313 314 316 315 315 318 318 322 319 312 314 315 317 321 323 331 325 306 303 306 307 307 307 306 307 307 308 307 307 307 307 307 306 306 306 306 306 307 307 308 308 308 308 308 308 307 307 307 307 307 307 307 308 307 307 307 307 307 307 307 307 307 307 307 307 307 306 306 306 306 306 305 305 304 304
307 308 307 308 314 318 313 311 316 315 313 317 317 317 314 310 315 319 314 314 315 315 315 315 316 315 314 313 314 322 326 320 317 317 320 323 323 325 315 303 302 305 306 306 306 307 307 307 308 308 308 307 307 307 306 306 306 306 306 306 306 307 307 307 308 307 307 307 307 307 307 307 307 307 307 307 307 307 307 307 307 307 307 307 307 307 307 307 306 306 306 306 306 305 305 304 304
310 311 312 310 309 312 312 309 311 315 317 317 316 317 313 312 316 317 314 316 316 315 314 313 315 316 315 312 309 314 323 324 321 321 322 322 322 319 305 299 303 305 305 306 306 307 307 307 307 307 307 307 307 307 306 306 306 306 306 306 306 306 306 307 308 307 307 307 307 307 307 307 307 307 307 307 307 307 307 307 307 307 307 307 307 307 307 306 306 306 306 306 306 305 304 304 304
311 312 313 312 310 311 314 311 309 311 314 316 316 315 311 312 318 317 312 314 317 316 314 313 316 316 316 315 311 308 313 319 318 317 318 318 319 318 308 301 302 303 305 306 306 306 307 307 307 307 307 307 307 307 306 306 306 306 306 306 306 306 306 306 307 307 307 307 307 307 307 307 307 307 307 307 307 307 307 307 307 307 307 307 307 307 307 306 306 306 306 305 305 305 305 304 304
Wind_Speed
19 19 18 18 19 15 10 1 1 2 1 3 4 2 3 4 2 1 5 3 1 3 3 3 3 3 3 2 5 5 3 7 5 5 4 5 4 3 15 15 7 8 19 28 24 27 27 24 23 22 22 20 20 19 19 17 17 17 15 16 16 16 16 15 15 15 13 12 11 10 9 8 8 7 7 6 5 5 4 3 3 3 2 2 2 2 3 4 5 5 5 6 6 7 8 9 10
17 16 15 16 15 7 3 1 1 2 0 6 3 3 4 2 1 4 9 4 4 4 2 5 5 4 5 3 2 2 4 8 5 3 4 5 5 6 16 16 9 8 19 27 24 27 28 25 23 22 22 20 20 19 18 18 17 16 15 16 17 17 16 15 15 15 13 13 11 10 10 8 8 8 7 6 5 5 4 4 4 3 3 4 3 1 3 4 5 5 5 6 7 8 8 9 10
14 12 15 16 9 2 1 1 2 3 4 8 4 3 3 3 6 9 10 8 8 5 4 5 3 2 1 4 1 1 5 5 4 3 4 5 3 5 15 17 10 9 18 25 23 26 28 26 24 21 22 21 20 20 19 18 17 17 16 16 17 16 17 15 15 15 13 13 12 10 9 9 8 8 7 6 6 5 5 5 5 5 5 5 3 2 2 4 5 5 6 6 6 8 8 9 10
11 8 14 12 4 2 2 1 2 4 6 6 3 4 4 5 9 9 8 8 7 3 3 2 2 2 3 3 3 1 6 6 5 5 2 4 4 5 13 17 12 11 18 24 23 24 26 26 25 21 22 21 20 20 19 18 17 17 16 16 16 16 16 15 14 14 13 12 12 10 10 9 8 8 8 7 6 6 5 6 6 6 5 5 4 2 2 4 4 5 5 6 6 8 8 9 9
10 6 10 5 0 2 2 2 1 5 8 4 2 4 5 7 9 8 6 6 5 3 3 2 2 3 1 3 2 1 6 5 4 6 4 3 5 7 11 17 16 12 17 23 22 22 24 26 25 21 21 21 20 20 19 19 18 17 17 16 16 15 16 15 14 14 13 12 12 11 10 10 9 9 8 6 6 6 6 6 6 6 5 5 5 3 2 3 4 5 5 5 6 8 8 8 9
9 3 7 3 2 1 1 3 3 6 7 5 3 4 5 7 7 6 5 6 5 6 5 3 2 1 1 4 3 4 7 2 3 5 6 3 4 7 11 17 18 13 15 21 22 22 23 25 25 21 20 21 20 20 19 18 18 18 17 16 16 15 15 14 13 13 13 12 12 12 11 10 10 9 8 7 7 7 7 6 6 6 6 5 5 4 3 3 4 5 5 5 6 7 8 8 8
6 4 4 2 1 1 3 5 6 6 5 5 5 5 5 5 4 3 4 4 2 2 1 2 1 2 3 3 1 8 11 8 5 3 5 5 5 7 11 17 19 16 15 19 21 21 22 24 25 21 20 21 20 19 19 18 18 18 17 16 16 15 14 14 14 14 13 13 13 13 12 11 11 10 9 9 8 8 7 7 7 6 6 5 4 4 4 3 4 4 4 4 6 7 8 8 8
5 5 2 1 1 2 3 6 7 5 5 3 4 6 5 4 3 2 3 2 2 2 1 2 2 1 5 1 1 8 9 13 14 11 8 7 8 8 12 17 19 18 17 18 21 21 23 24 25 23 20 21 20 19 19 19 18 18 17 17 16 15 15 14 14 14 14 14 14 13 13 12 12 11 10 10 9 9 8 7 7 6 6 5 4 5 4 3 4 4 4 3 5 7 7 8 9
4 3 2 1 0 3 5 6 7 4 5 4 5 6 4 4 3 2 5 3 2 2 3 3 4 3 6 2 4 8 8 13 16 17 14 10 10 9 13 16 17 19 18 18 20 21 23 24 24 24 21 20 20 19 20 20 19 19 18 17 16 16 15 15 15 15 15 15 14 14 14 13 13 12 11 10 10 9 9 8 8 7 6 6 4 5 4 4 4 4 4 2 4 7 7 7 9
4 2 3 1 1 5 9 8 6 3 4 5 7 9 5 4 3 3 5 5 3 4 5 2 5 5 6 5 6 6 7 10 11 14 15 14 11 11 13 15 16 18 18 18 20 21 23 24 24 25 22 21 21 20 21 21 20 19 19 18 17 16 16 16 16 15 15 15 15 15 15 14 14 13 11 11 11 11 10 10 9 8 7 6 5 5 5 5 5 5 4 2 4 6 6 7 9
3 2 3 1 3 8 9 7 7 4 3 4 6 8 6 5 4 5 5 7 5 6 6 2 2 5 3 4 6 8 9 11 14 13 11 12 12 11 13 15 16 17 17 17 19 21 22 23 24 25 24 22 22 22 22 22 21 20 20 19 17 17 17 17 16 16 16 15 15 15 15 14 14 13 11 11 12 12 11 11 10 10 8 6 5 5 6 6 6 5 3 2 3 5 5 7 9
1 1 3 2 6 8 7 8 9 6 5 5 4 4 5 5 4 5 5 8 7 6 6 3 3 3 1 3 4 8 11 14 16 13 11 10 11 11 13 15 16 17 17 16 17 20 21 23 24 25 25 24 23 23 23 23 22 21 20 19 18 18 18 17 17 17 16 16 16 15 15 14 15 14 11 11 12 12 11 11 10 9 8 6 6 6 6 6 6 5 3 3 3 4 5 7 9
2 3 3 2 3 5 6 7 6 6 6 5 5 4 4 5 5 6 7 9 9 8 7 7 4 2 3 4 4 7 9 13 12 11 12 10 9 11 13 15 15 16 16 16 17 19 20 22 23 25 26 26 24 24 24 24 23 22 21 20 20 20 19 19 18 17 17 17 16 16 15 14 14 13 12 11 12 12 11 11 10 9 8 6 6 6 6 6 6 5 4 4 3 4 5 7 9
3 3 4 3 2 3 6 5 4 5 6 2 4 5 4 4 6 7 7 10 13 9 7 6 6 3 4 3 5 6 7 11 10 8 10 8 9 11 14 14 14 15 15 16 17 18 20 21 23 25 27 27 27 26 26 26 25 23 23 22 21 21 20 19 18 18 18 17 16 16 16 15 13 13 12 10 11 12 10 10 10 9 8 6 6 7 7 6 7 6 4 4 3 3 5 7 9
4 2 3 2 3 3 5 5 4 5 4 1 4 5 4 5 5 7 8 10 12 6 3 2 7 4 4 4 7 6 7 9 7 7 7 8 9 11 14 14 14 15 16 17 18 19 20 22 23 25 27 28 29 28 28 27 26 25 24 23 23 22 21 20 19 18 18 18 17 17 17 16 14 13 12 11 11 12 10 10 10 9 8 7 7 7 7 7 7 6 4 4 4 3 6 8 11
2 3 1 3 4 4 4 4 4 5 4 3 4 3 5 6 4 6 6 6 8 3 1 3 4 3 4 7 9 6 4 6 4 6 7 8 9 11 13 14 15 16 17 18 19 20 21 22 24 26 28 29 30 30 29 28 28 27 26 25 24 23 22 21 21 20 19 19 18 18 19 18 16 15 14 12 12 12 11 11 11 9 9 7 7 8 8 8 7 6 5 5 4 3 6 10 11
2 2 2 5 4 4 3 2 4 4 3 4 6 3 3 6 3 3 3 1 5 6 3 4 3 3 5 7 6 4 4 4 3 6 7 8 9 11 13 14 16 17 19 21 21 22 22 24 25 26 28 30 31 31 30 30 28 28 28 27 26 25 23 23 22 21 21 20 20 20 20 20 19 17 16 15 15 14 11 11 11 9 9 7 8 9 9 8 7 7 6 5 5 5 8 10 10
2 2 4 7 3 3 4 4 5 3 2 5 6 2 2 5 6 4 6 4 4 8 7 5 6 6 8 10 11 9 7 5 5 7 9 9 9 9 12 16 17 19 21 23 24 24 25 26 26 27 29 30 31 31 31 31 30 29 29 29 28 27 25 24 24 23 22 21 21 21 21 21 20 19 18 17 16 14 11 11 11 10 9 8 8 9 9 9 8 8 8 7 6 7 8 9 10
3 3 4 7 3 3 5 5 5 4 5 6 6 5 2 5 5 3 5 9 8 10 9 6 7 9 12 15 16 14 10 8 8 10 10 11 11 11 14 16 18 21 23 25 27 27 28 28 28 29 29 30 31 32 32 32 31 30 30 30 30 29 27 26 25 24 23 23 23 23 23 22 21 20 19 17 15 13 12 11 11 10 9 9 9 10 9 9 10 10 9 8 7 7 8 9 9
3 3 5 6 4 4 4 5 6 6 6 7 8 8 6 5 3 1 5 10 11 11 9 7 9 9 11 15 12 9 8 9 11 12 12 13 15 15 16 17 19 23 25 27 28 28 30 31 31 31 30 31 31 32 33 33 32 31 32 31 31 30 29 27 27 26 25 25 25 24 24 23 22 21 19 18 16 14 13 13 12 11 10 10 10 10 10 10 11 10 9 9 8 7 8 8 9
1 3 5 4 4 4 6 7 7 7 7 7 7 9 11 7 4 5 6 9 12 11 10 10 13 12 12 16 9 4 7 8 9 11 11 13 16 18 20 23 24 25 25 25 28 30 31 33 33 32 32 32 33 34 34 34 33 33 33 33 32 32 31 30 28 28 27 26 26 25 24 24 23 22 21 19 17 15 15 14 13 12 11 10 10 10 10 10 11 10 9 9 8 8 8 8 8
1 4 5 5 4 4 7 7 8 8 7 7 7 9 11 7 6 7 8 11 11 9 11 11 13 12 12 13 8 4 6 8 9 10 10 13 17 19 24 27 26 26 26 27 30 32 32 35 36 35 35 34 35 35 35 35 34 34 34 34 34 33 33 32 30 30 29 28 27 26 25 25 24 23 22 20 18 17 16 15 13 13 12 11 10 10 10 11 12 11 10 9 9 8 8 8 8
3 5 3 5 6 5 6 5 8 7 6 8 7 6 6 6 9 7 9 15 11 11 15 14 12 12 12 12 8 6 10 13 11 11 13 15 18 21 26 28 29 30 30 32 34 33 33 35 36 37 37 37 37 37 36 36 35 35 35 35 35 35 34 33 33 32 31 30 29 28 27 26 25 24 23 22 20 18 17 16 14 14 13 12 11 11 10 11 12 11 10 9 9 8 8 8 8
4 5 5 7 8 7 6 7 9 7 8 10 6 6 8 10 11 7 12 15 12 14 17 16 13 10 12 12 11 10 13 16 14 15 19 20 23 27 29 31 32 31 30 34 36 35 36 35 36 37 38 39 38 38 38 37 36 36 35 36 36 36 35 36 35 34 32 31 30 29 28 27 26 25 24 23 21 20 19 17 15 14 14 12 11 11 11 11 12 11 10 9 8 8 8 8 8
4 6 6 6 7 7 8 9 9 9 9 8 9 9 13 16 10 11 20 17 13 16 17 16 12 10 12 12 13 12 14 18 16 16 20 23 27 30 32 34 31 27 31 36 36 36 38 37 36 38 39 40 39 39 39 38 37 37 36 37 37 37 37 37 36 35 34 33 31 31 30 28 27 26 25 24 22 21 20 17 16 15 14 12 12 12 11 11 12 11 10 9 9 8 8 8 8
4 6 6 5 8 8 8 8 8 10 7 6 10 13 16 14 8 14 20 16 17 18 17 15 12 14 15 13 15 15 16 20 19 16 19 23 26 28 32 33 29 31 36 36 36 39 40 38 38 39 39 39 40 40 40 39 39 38 38 39 38 38 38 38 36 36 35 34 33 32 31 30 28 27 26 24 23 22 20 18 16 15 14 12 12 12 11 12 12 11 11 10 9 9 8 8 8
2 4 5 6 10 9 7 8 10 10 6 7 10 14 18 10 5 11 9 9 14 11 12 14 12 15 14 13 14 14 16 20 20 16 16 19 20 24 28 28 29 36 36 34 39 42 40 38 39 39 39 39 40 41 41 41 40 40 40 39 39 39 38 38 37 37 36 36 35 33 32 31 29 28 26 25 24 23 21 19 17 16 15 13 12 13 12 12 12 11 11 10 10 9 9 9 9
1 3 7 9 9 8 8 9 11 6 4 10 10 14 17 7 8 12 9 10 10 7 15 19 15 14 14 15 14 13 15 17 15 11 12 16 18 21 25 27 30 35 34 35 42 41 39 39 39 39 40 39 40 41 41 41 41 41 41 40 40 39 38 38 37 37 37 37 36 34 33 32 30 29 27 26 24 23 22 20 18 17 16 14 12 13 13 13 12 12 11 11 10 9 9 9 9
2 1 5 11 8 8 10 9 9 4 5 7 3 9 12 7 14 17 16 16 11 11 20 21 16 15 15 15 13 12 14 13 9 8 15 20 22 24 27 31 32 32 34 37 39 37 38 39 39 40 40 39 40 41 41 41 42 42 41 41 40 39 38 38 38 38 38 37 36 35 34 33 32 30 28 27 25 24 23 21 19 18 17 14 12 13 14 14 13 13 12 11 11 10 10 9 9
4 1 1 7 7 8 8 4 2 2 5 4 5 6 6 6 16 17 15 13 10 13 18 16 14 13 13 13 10 12 14 12 8 13 21 23 26 28 30 35 35 33 35 34 34 36 38 38 38 39 38 39 40 40 41 41 42 42 42 41 40 39 39 38 38 38 37 37 37 36 35 33 32 31 29 28 27 25 23 22 20 19 17 15 13 14 15 15 14 14 13 12 11 11 10 10 9
4 3 1 2 3 6 6 3 1 2 5 5 7 7 5 8 15 14 11 9 9 11 14 14 12 12 12 11 10 13 14 11 11 18 25 26 29 31 31 36 35 33 33 33 34 36 36 36 36 37 37 38 39 40 41 41 42 42 42 41 40 40 39 38 38 38 37 36 36 36 35 34 33 32 30 29 28 26 25 23 22 19 17 16 14 15 17 16 15 14 14 13 12 12 11 10 10
2 2 4 2 3 6 8 7 4 6 6 4 7 5 7 13 15 11 9 6 7 9 13 13 11 12 12 10 10 12 12 10 12 19 26 28 30 32 32 34 35 32 32 35 36 35 34 33 34 35 36 36 37 39 40 41 41 41 41 40 40 39 38 38 38 37 37 36 36 35 35 34 33 32 31 29 29 28 26 25 23 20 18 17 16 16 18 17 16 15 14 14 14 13 12 11 10
1 2 6 5 4 5 7 7 5 6 4 0 6 4 7 12 10 9 8 6 8 10 13 13 13 13 11 10 9 10 11 11 12 16 22 27 30 32 31 32 35 33 33 35 35 34 33 32 32 33 34 35 36 37 39 40 40 40 39 38 37 37 37 37 37 36 36 35 35 35 34 33 32 32 31 30 29 28 27 26 23 21 19 18 17 18 18 18 17 16 15 15 14 13 13 12 10
2 1 4 5 5 4 5 7 5 1 3 3 4 4 12 18 13 13 12 11 13 14 15 15 14 13 11 10 10 11 11 12 14 14 18 25 26 28 28 30 32 31 32 33 33 32 32 32 31 32 33 33 34 35 36 38 37 37 36 35 35 35 35 36 35 35 35 35 35 35 33 33 32 31 30 29 28 28 27 26 24 22 20 19 18 19 18 18 18 18 17 16 15 14 13 12 11
3 2 3 4 4 5 6 7 5 3 1 6 6 7 17 22 16 14 14 12 13 15 15 15 15 14 12 10 10 12 12 14 15 14 18 21 21 24 26 26 28 28 30 30 30 29 29 30 29 29 30 31 32 33 33 34 33 32 32 31 31 32 33 33 34 34 34 35 34 34 33 32 31 30 30 29 28 28 27 26 25 23 22 20 20 20 19 19 20 19 18 17 17 16 14 12 10
3 4 3 4 5 6 8 9 6 2 5 10 10 11 17 19 16 15 15 11 10 14 15 14 14 12 10 10 11 12 13 15 14 13 18 19 20 24 24 24 25 25 27 26 26 26 27 28 27 27 28 29 30 30 30 29 29 28 28 28 29 30 31 32 33 33 33 34 33 33 33 32 30 30 29 29 28 27 27 26 25 24 23 22 22 22 21 21 22 21 20 18 17 16 14 12 11
1 1 2 5 6 8 9 10 8 2 3 10 10 12 15 16 18 18 17 13 10 14 15 14 14 11 9 11 13 13 14 14 11 11 17 19 21 22 21 23 23 22 24 24 24 24 26 26 26 27 27 28 29 30 30 30 30 28 26 28 30 30 31 31 31 32 33 33 33 32 32 31 30 29 29 29 28 27 27 26 25 25 25 24 24 24 22 22 23 22 20 19 18 17 15 14 12
4 3 5 6 6 10 12 10 9 2 4 8 8 9 14 17 19 19 17 13 13 14 13 15 15 11 10 12 14 14 12 11 9 11 13 14 17 19 18 19 18 19 20 21 23 23 23 24 24 25 25 27 30 31 32 32 33 32 30 31 33 32 32 33 33 34 34 33 33 33 32 31 30 29 29 29 28 28 28 26 26 26 26 26 25 23 22 22 23 23 22 20 18 17 16 15 14
6 4 4 6 4 7 10 7 5 1 3 7 9 9 14 19 19 19 16 12 13 13 12 13 14 10 9 10 11 11 11 10 10 11 10 9 12 13 12 10 11 13 12 13 18 19 19 20 22 23 24 26 29 31 32 32 32 33 30 28 29 30 30 32 33 32 33 33 33 33 32 31 30 30 29 29 28 28 28 28 27 27 27 27 26 25 24 24 24 24 24 22 19 17 16 15 16
5 4 3 6 5 3 6 4 4 4 3 7 10 9 12 15 13 13 13 10 10 11 10 11 10 10 10 9 9 9 10 11 11 11 9 7 8 8 7 5 5 6 5 7 11 13 15 18 20 22 23 25 27 29 30 30 28 28 26 21 21 24 23 26 28 27 29 31 32 33 32 32 31 30 30 29 29 28 29 28 27 27 27 28 28 27 27 26 26 26 25 24 22 19 16 16 17
4 6 6 7 8 6 8 6 7 8 5 3 7 8 8 7 7 10 9 6 7 8 8 9 9 9 9 8 9 9 10 10 10 10 8 6 6 6 6 4 3 4 4 5 6 8 10 13 16 20 21 22 24 26 28 28 25 24 23 16 14 17 16 18 23 24 27 30 32 33 33 32 31 30 30 29 29 29 29 29 28 27 27 28 29 28 28 27 27 27 26 26 25 23 19 16 17
4 6 11 12 10 9 9 8 7 6 5 3 5 7 7 5 7 11 8 4 7 7 6 9 10 8 7 8 9 9 9 9 9 9 8 6 6 6 6 6 5 3 3 3 3 4 6 9 13 17 19 20 22 24 26 27 26 25 25 21 18 18 16 19 25 28 29 31 31 31 31 31 30 30 30 29 29 30 30 30 29 28 28 28 29 29 29 28 28 27 27 26 26 26 22 17 18
4 4 9 11 9 7 7 6 3 2 6 4 4 1 6 9 11 9 4 6 12 10 6 8 9 7 6 7 8 7 7 7 7 7 7 6 6 6 6 7 5 3 2 2 3 4 5 7 10 14 17 19 20 22 25 26 26 26 27 27 25 24 22 23 27 28 28 29 29 29 29 30 30 30 31 30 31 31 31 31 30 29 28 28 29 30 30 29 28 27 27 27 27 27 24 20 19
4 3 3 5 5 5 5 3 2 3 5 5 2 4 3 8 10 6 2 8 15 13 8 6 6 6 5 6 6 6 7 6 6 6 5 6 6 5 6 7 5 3 2 3 4 4 5 7 9 12 14 16 18 21 24 26 27 27 28 27 26 26 24 23 24 24 24 25 26 27 28 29 30 31 31 32 32 32 32 31 30 29 29 29 30 31 31 30 29 27 27 27 27 27 27 25 22
5 2 2 2 4 4 4 3 3 2 3 5 2 4 1 6 9 6 4 7 12 11 9 7 7 6 6 5 5 4 5 5 5 5 5 5 5 5 7 7 5 3 3 5 5 5 6 7 8 11 13 15 17 19 22 24 26 26 26 26 24 23 22 19 18 20 21 22 24 25 26 28 29 30 31 32 32 32 32 32 31 30 31 30 30 30 31 30 29 28 28 28 28 29 29 27 24
3 2 2 1 2 1 1 2 2 1 2 6 4 3 2 6 9 7 3 2 7 7 6 7 6 6 6 6 6 5 4 3 3 4 5 5 5 5 5 5 3 2 3 5 5 5 6 7 8 9 11 13 15 17 20 23 24 24 24 25 23 21 20 17 15 17 19 20 22 24 25 26 27 29 30 31 32 32 32 32 32 32 31 31 30 30 31 31 30 29 29 29 29 29 29 29 28
0 3 2 3 3 2 2 1 1 1 3 6 4 2 2 3 7 5 3 3 4 3 5 7 7 8 7 7 6 5 5 5 5 4 5 5 5 4 2 2 1 1 2 4 5 4 5 6 7 8 9 11 13 15 18 20 22 23 24 24 24 23 21 19 17 17 19 20 22 23 24 25 26 28 30 31 32 32 32 33 33 32 31 31 31 31 31 31 30 29 29 28 28 29 29 29 29
2 3 3 4 4 3 3 3 2 0 5 4 3 2 3 4 7 5 5 6 5 3 6 8 9 9 8 7 6 5 5 5 5 5 5 4 4 3 1 2 1 2 3 4 5 5 5 6 7 9 10 11 12 13 16 18 21 23 24 24 25 24 23 22 21 21 21 22 22 22 23 24 25 27 29 31 32 33 33 33 33 32 32 32 31 31 31 30 29 29 29 29 28 29 29 29 29
4 2 3 3 4 3 3 3 1 3 5 3 2 2 2 6 10 11 14 16 12 7 8 9 10 9 8 8 7 5 5 5 5 6 5 4 4 4 2 2 2 2 4 5 6 6 7 7 8 10 11 11 12 13 14 17 20 23 24 25 25 24 24 23 23 22 22 22 22 23 24 25 26 27 28 31 32 33 33 33 33 33 32 32 32 31 30 30 29 29 29 29 29 29 29 29 30
4 4 3 2 0 2 3 3 2 3 4 3 3 2 3 5 8 11 14 16 13 8 7 9 9 10 9 8 7 6 6 6 6 6 6 5 5 4 3 3 4 5 7 8 9 9 9 9 9 10 10 11 12 14 15 17 20 21 23 24 24 23 23 23 23 22 22 22 23 23 24 26 27 28 29 30 31 32 33 33 33 33 32 32 31 31 30 29 29 29 29 29 30 29 29 28 29
3 5 4 4 4 3 3 3 2 4 4 4 3 1 3 3 4 7 10 11 10 7 8 8 8 9 7 6 7 7 8 7 6 6 6 7 6 4 3 3 5 7 7 8 9 10 10 10 10 10 11 12 14 15 17 18 19 20 21 22 23 22 22 22 22 22 22 22 23 23 24 25 26 27 27 27 28 30 31 32 32 32 32 32 31 31 30 29 29 29 29 29 29 29 28 28 29
2 3 5 2 5 4 2 3 3 2 4 4 2 3 5 4 9 14 12 11 10 8 7 7 8 8 5 7 8 7 8 8 6 6 7 7 6 4 3 4 7 8 6 7 8 10 11 11 11 12 13 13 15 16 17 18 18 19 20 21 21 21 21 21 21 22 22 22 23 24 24 25 25 25 25 25 26 28 29 30 31 31 31 31 31 31 30 30 29 29 29 29 29 29 28 29 29
1 3 3 4 4 5 2 2 1 2 2 4 1 4 5 4 9 12 8 8 9 7 7 6 8 7 5 7 7 6 7 8 7 6 6 7 5 4 4 6 8 8 7 7 8 9 12 12 13 14 14 14 15 16 16 17 17 18 18 19 20 20 21 22 22 22 22 22 23 23 24 24 24 24 24 24 24 25 26 27 29 30 31 31 31 31 31 31 30 30 30 29 29 29 29 29 29
3 2 4 3 2 4 3 1 4 3 2 5 2 5 5 1 4 8 8 9 10 8 7 7 8 5 4 7 6 6 7 7 7 6 6 6 6 5 5 7 10 9 8 8 8 9 11 12 14 14 14 13 13 14 15 15 16 17 18 19 20 21 22 22 22 22 22 22 23 23 23 23 23 23 23 23 23 24 24 25 27 28 29 30 31 31 31 31 30 30 30 30 29 29 29 29 29
3 2 2 2 3 1 2 1 1 0 3 5 4 6 5 4 4 6 8 11 11 10 9 8 8 7 6 7 7 7 7 6 6 6 6 6 6 6 6 7 10 10 9 9 8 8 9 10 12 12 12 11 10 11 12 14 15 17 18 19 20 21 22 22 22 22 22 23 23 23 23 23 23 23 23 23 23 24 24 24 25 26 28 29 30 31 31 31 31 30 30 30 29 29 29 29 29
2 1 3 2 2 3 3 2 3 3 2 3 5 6 4 6 6 5 9 10 8 9 9 8 8 8 7 6 6 7 6 5 6 6 6 6 6 7 7 7 9 10 10 10 9 9 10 10 11 12 12 11 11 12 12 13 15 16 18 19 20 21 21 21 21 22 22 23 22 22 22 22 22 22 23 23 23 23 23 23 24 25 26 28 29 30 30 30 30 30 30 30 29 29 29 29 29
2 1 1 1 0 1 0 1 2 4 3 1 2 6 8 6 5 7 10 9 7 7 7 8 9 8 8 6 5 6 6 6 6 6 6 6 6 6 7 9 11 11 11 11 11 11 11 11 12 13 13 14 15 15 14 14 15 16 18 19 20 21 21 21 21 22 22 22 21 21 21 21 22 22 23 23 23 23 23 22 23 24 25 26 27 29 30 30 30 30 30 30 29 29 29 29 29
5 5 5 5 4 3 1 3 1 3 3 4 2 5 11 6 4 7 8 6 7 6 6 8 8 8 8 7 4 5 6 7 6 6 6 6 6 6 7 9 11 11 13 13 13 13 13 14 14 14 15 17 18 18 17 16 15 16 18 18 19 20 21 21 22 22 22 22 21 21 21 21 22 23 23 23 23 23 22 22 22 23 24 25 26 27 28 29 30 30 30 30 30 30 30 30 29
Wind_Direction
303 306 314 322 326 328 324 19 161 309 124 243 220 217 233 209 218 239 269 284 295 249 197 261 233 227 281 198 204 218 196 186 179 155 217 245 277 253 187 189 194 181 181 185 185 184 187 187 186 185 188 188 188 189 190 191 190 192 191 193 194 197 197 197 203 198 195 190 194 197 191 202 208 209 213 212 212 209 200 208 221 230 235 244 258 294 328 325 328 329 332 336 337 340 341 342 339
298 308 318 327 330 332 300 101 209 269 238 259 218 188 218 178 183 228 247 230 210 247 281 275 230 222 284 275 218 292 261 214 203 184 247 281 288 232 188 190 193 181 180 185 186 185 188 187 186 186 188 189 189 190 191 192 192 193 192 195 198 202 199 196 201 199 194 190 196 197 194 205 211 214 215 215 215 209 206 213 220 229 233 239 239 268 318 320 327 330 332 333 336 339 340 340 338
285 311 331 336 335 15 360 352 197 196 231 247 237 212 200 169 224 239 242 229 232 268 310 281 258 212 298 313 286 307 272 253 234 211 274 283 278 225 192 188 186 180 181 187 188 187 190 189 186 186 188 190 190 190 192 193 194 194 194 197 200 203 201 200 202 201 195 191 196 196 197 206 213 215 217 216 213 209 210 219 224 230 239 248 233 219 307 312 318 327 329 329 335 338 338 339 339
269 315 343 348 339 360 66 275 189 182 230 235 243 227 193 204 234 245 244 242 249 292 314 302 336 219 145 289 279 284 266 273 235 187 259 254 223 232 199 190 185 179 183 189 191 190 194 191 187 187 188 190 191 191 193 193 195 195 196 198 199 202 201 202 204 201 196 194 195 195 200 206 211 214 219 215 208 209 215 228 233 238 245 253 237 209 292 304 307 318 323 328 336 338 337 338 336
261 288 334 357 170 309 120 221 173 194 227 199 216 230 198 218 237 249 251 266 259 233 230 152 308 277 147 235 211 251 253 275 261 200 222 255 236 239 205 195 193 182 182 190 194 196 198 194 189 188 189 192 192 193 194 195 196 196 199 200 199 201 201 201 203 201 196 197 198 196 202 207 211 215 216 210 208 211 218 233 239 246 248 255 245 218 258 291 299 313 320 331 338 336 334 336 332
253 247 331 302 212 302 170 251 218 221 229 170 214 238 202 221 238 249 270 290 252 208 202 166 241 336 329 252 180 215 237 291 320 215 219 252 254 230 210 201 198 192 184 190 198 201 202 198 192 190 191 193 195 195 196 196 197 197 200 201 201 202 201 201 202 203 198 198 201 199 203 207 212 214 210 206 209 211 218 230 237 246 250 259 254 230 234 274 291 308 321 332 336 335 331 331 334
222 182 360 297 283 320 223 245 231 235 239 182 214 235 213 228 231 258 309 309 286 203 183 210 175 83 263 286 274 245 242 244 254 249 238 250 259 226 213 204 200 199 190 191 199 203 205 202 197 193 192 194 196 197 198 198 198 199 201 202 203 203 201 202 203 204 201 201 204 203 205 208 211 212 209 207 209 212 216 224 233 242 253 263 260 242 233 261 284 299 314 326 333 333 330 333 341
162 158 52 84 327 292 240 248 241 224 244 237 239 240 220 232 218 261 294 293 298 290 252 255 87 112 268 12 245 261 259 251 249 255 263 264 262 233 214 206 202 202 198 196 199 203 205 205 202 197 194 195 197 199 201 201 202 202 203 204 204 205 203 204 205 205 205 205 207 207 207 211 213 214 212 209 209 212 216 221 230 238 251 260 261 250 238 258 278 295 300 309 333 327 329 340 344
103 111 106 148 208 268 251 249 253 224 242 269 269 254 228 244 231 244 273 265 260 273 265 227 133 208 278 311 243 278 286 262 255 253 257 261 258 237 218 209 208 206 202 202 201 204 205 206 205 202 198 195 199 200 202 204 204 205 205 206 205 205 205 206 207 206 207 207 208 209 210 212 215 216 214 213 214 213 215 221 228 234 244 253 257 253 245 256 267 290 287 282 334 326 331 343 342
50 35 123 172 176 244 249 242 250 233 230 245 254 255 250 264 254 231 254 262 249 267 280 160 145 223 264 275 263 279 271 263 268 262 255 253 252 237 220 211 213 212 209 207 205 206 206 208 207 205 202 197 200 202 203 205 205 207 207 208 207 207 208 209 209 208 208 208 208 210 212 215 218 218 216 216 218 216 216 222 227 232 239 245 250 251 247 251 258 275 271 266 327 324 337 342 336
35 354 113 174 220 233 243 241 247 240 237 243 247 250 247 253 265 255 252 270 258 244 265 101 182 227 227 275 262 262 270 275 275 271 261 250 245 233 220 213 214 214 216 215 211 210 208 210 210 208 207 203 202 203 205 206 206 208 208 209 208 209 210 211 211 210 209 210 211 211 213 217 221 219 215 216 221 220 220 226 230 234 241 244 246 251 250 250 259 271 270 289 318 321 336 334 327
89 223 119 188 220 228 237 243 247 245 253 246 244 248 220 209 232 245 248 266 261 246 248 207 210 189 194 284 255 280 293 279 272 271 267 255 241 228 218 214 215 215 218 222 220 217 213 212 213 212 211 210 206 205 207 208 208 208 208 209 209 210 211 212 212 211 211 212 213 213 214 217 221 221 216 217 225 226 226 232 235 240 246 247 247 252 254 253 260 269 277 288 303 320 327 325 328
170 178 145 210 218 217 236 246 247 248 254 233 234 240 198 199 216 228 242 258 260 265 255 219 188 159 237 256 267 305 302 281 288 277 260 258 241 223 216 214 217 219 218 222 224 223 219 216 217 216 214 214 211 208 210 211 210 210 210 209 210 212 212 213 212 212 213 214 215 215 214 217 220 221 217 217 229 232 231 238 240 243 247 247 248 252 255 253 257 261 271 276 280 310 316 324 327
195 166 160 233 262 209 228 246 252 244 248 215 227 232 208 222 218 219 235 257 260 252 250 217 159 179 241 262 288 288 275 284 302 272 249 250 235 217 215 214 216 219 221 224 226 226 225 222 220 220 217 216 216 212 211 213 214 213 213 212 212 212 212 213 212 212 213 215 216 216 216 217 217 218 218 217 230 236 232 238 241 244 247 245 246 249 250 247 249 249 260 266 254 300 313 315 312
189 161 152 235 259 228 220 224 226 234 249 229 233 227 229 244 227 229 226 245 262 246 253 231 143 185 219 205 259 250 260 297 302 254 235 234 223 213 215 213 215 216 222 225 226 228 228 227 224 223 221 219 219 217 215 215 217 217 217 216 214 213 213 213 213 212 213 215 216 217 219 219 216 218 220 217 228 237 232 237 243 247 249 245 242 244 246 243 244 239 242 258 241 286 305 297 301
159 131 132 247 237 225 217 202 197 230 252 239 255 261 258 268 246 238 226 227 274 291 242 227 171 222 209 199 244 251 282 315 287 233 218 222 216 212 215 214 218 219 224 226 226 227 227 229 227 225 224 222 222 221 220 219 219 219 220 220 218 217 215 214 214 213 213 216 216 218 221 221 219 219 221 220 230 237 231 236 244 248 249 245 240 240 243 240 239 231 228 249 237 258 290 289 296
92 117 230 253 234 214 210 193 191 213 252 258 286 311 263 290 304 262 279 207 264 282 266 239 236 257 217 217 265 305 326 314 244 219 206 212 213 213 219 219 222 225 228 229 228 227 227 228 228 228 226 225 224 223 223 223 222 221 222 222 221 221 218 217 217 215 214 216 217 218 221 223 223 223 225 226 233 238 234 237 243 247 248 243 239 239 242 239 233 223 222 240 235 243 274 285 294
141 148 228 242 220 202 197 195 204 206 257 265 273 243 164 291 299 317 326 327 278 286 285 274 291 286 257 259 274 283 291 280 234 216 205 208 214 221 228 225 224 229 232 233 232 229 227 228 228 229 229 227 226 226 226 226 225 223 224 225 224 224 221 220 219 218 216 216 218 219 222 224 226 227 229 231 235 239 237 239 243 246 246 240 236 237 240 237 226 218 218 230 237 245 266 281 293
184 160 228 239 199 206 205 198 216 230 250 265 272 259 227 249 268 338 308 293 293 290 287 288 295 291 285 277 266 260 265 259 235 219 212 212 214 219 229 231 228 231 236 240 239 234 230 230 229 229 230 229 227 228 228 227 227 225 226 226 226 226 225 223 222 221 220 220 220 220 223 225 228 230 231 234 237 239 239 239 243 243 241 236 233 234 236 234 226 220 221 231 242 256 272 284 296
203 192 237 245 214 239 243 225 234 244 258 276 283 281 270 241 236 276 275 281 281 273 273 279 276 271 275 276 264 250 253 248 234 221 220 225 224 222 228 234 233 236 244 247 246 241 235 234 232 231 231 230 229 229 229 228 228 227 228 228 228 227 226 225 225 225 224 224 224 224 225 226 229 231 232 235 236 236 236 237 241 240 236 233 233 233 233 232 228 223 224 232 244 260 274 287 300
199 206 234 241 202 242 257 245 248 253 257 261 273 288 283 268 233 241 260 276 273 267 258 246 254 256 256 268 277 264 254 249 236 229 229 234 236 233 234 240 243 247 253 251 248 246 243 239 236 234 232 231 230 230 230 229 228 227 228 229 229 228 227 226 226 227 227 228 227 227 227 227 230 231 232 233 233 233 234 237 239 238 233 233 236 234 232 230 227 222 221 230 245 259 272 286 300
188 225 234 240 204 241 256 246 250 248 255 263 263 275 278 276 257 241 237 251 260 269 263 242 242 251 253 264 283 293 271 261 242 231 232 236 240 241 242 246 248 250 251 249 250 252 250 244 239 236 232 230 231 231 231 230 229 228 228 228 229 228 228 227 227 227 228 229 229 229 228 228 229 230 232 232 230 231 233 237 238 237 232 233 237 234 230 227 225 220 219 230 246 258 271 285 298
234 248 254 254 226 234 252 251 256 252 261 264 256 272 285 283 274 258 235 245 253 262 265 260 250 250 257 265 272 274 269 264 250 229 228 232 237 241 244 248 250 251 250 249 252 253 251 247 242 237 233 231 231 231 230 231 231 231 230 228 228 228 228 227 227 228 228 229 229 230 229 229 230 230 231 231 229 229 232 235 237 235 232 234 237 232 227 225 222 217 220 233 245 254 269 283 295
224 259 279 265 247 241 249 257 264 264 259 257 265 299 293 269 272 274 255 253 254 256 261 262 261 259 263 269 269 263 262 263 258 240 234 234 237 244 249 252 254 254 251 251 252 250 249 248 244 238 234 233 232 231 229 230 232 232 230 229 229 229 228 229 229 228 228 228 229 231 231 231 231 231 231 230 228 229 231 233 234 232 230 234 233 227 224 221 220 216 220 233 242 251 265 279 292
212 244 261 266 264 253 252 260 267 268 260 259 267 276 268 259 268 271 262 263 263 260 263 266 269 267 263 265 264 261 261 264 263 250 241 239 243 250 253 254 255 254 251 252 252 250 249 248 246 240 235 234 233 231 229 230 231 230 229 229 230 230 230 231 230 229 228 228 229 231 232 232 232 231 231 230 229 228 230 232 232 229 228 229 225 223 222 219 218 216 221 232 240 250 264 275 288
210 235 262 282 280 271 266 270 266 263 256 253 263 268 264 261 273 267 257 256 261 261 266 271 269 264 261 259 258 257 259 263 261 254 248 247 248 250 253 255 254 252 253 253 252 252 251 248 245 241 237 236 233 230 229 230 230 229 230 231 231 230 231 232 229 229 229 228 229 231 233 233 233 233 232 231 229 228 229 230 231 228 224 223 220 219 221 219 218 219 224 232 241 251 261 271 282
205 251 282 267 269 276 269 266 262 263 268 249 252 264 266 262 245 256 256 242 252 270 276 268 257 256 257 254 254 254 254 258 258 254 254 254 248 246 252 254 251 254 254 251 252 253 251 246 243 241 240 237 232 230 230 230 229 230 232 231 230 231 232 230 229 229 228 229 230 231 233 234 235 235 234 233 230 229 228 230 230 227 222 220 219 219 220 220 218 223 228 234 244 254 258 265 277
263 296 308 280 280 282 256 255 260 264 274 241 230 258 267 269 246 256 276 259 249 276 271 262 256 257 259 256 254 253 254 257 257 252 249 252 249 247 250 250 250 255 253 250 254 253 249 246 243 242 241 236 232 230 231 230 230 232 232 231 231 232 231 229 229 228 228 230 230 231 233 234 235 235 235 233 231 229 228 229 230 226 223 221 221 219 220 220 220 226 230 234 243 249 251 257 270
293 12 317 296 316 296 263 256 249 209 241 238 199 275 271 253 255 260 265 259 243 245 256 260 260 259 259 257 256 254 256 257 250 241 244 248 251 250 251 254 254 255 255 255 256 252 249 247 244 243 240 235 232 231 231 231 231 231 231 231 232 231 229 229 229 229 229 229 230 231 232 233 234 235 235 234 232 230 229 229 229 226 224 222 221 220 219 219 222 228 231 234 239 241 242 251 265
304 336 306 305 327 297 276 271 254 186 236 190 129 276 273 242 256 257 260 258 244 242 253 261 260 258 259 257 256 256 257 255 241 242 248 250 253 253 254 259 258 254 257 258 254 251 250 247 244 242 238 235 233 232 232 231 231 231 231 232 231 230 229 229 230 230 230 229 230 230 231 232 234 235 235 236 234 232 230 229 228 226 223 221 220 221 220 220 224 229 232 232 233 233 235 246 261
315 307 281 316 300 280 289 298 349 295 262 142 150 253 278 268 266 263 266 260 240 247 256 258 255 254 256 255 252 256 258 253 247 251 254 254 255 256 255 258 258 255 257 257 253 253 251 246 243 240 238 236 234 233 232 232 232 232 231 230 230 230 229 229 230 230 229 229 230 230 231 232 233 235 235 236 236 234 231 229 228 225 222 222 220 221 221 222 227 231 232 229 225 225 229 242 257
2 299 284 278 220 271 298 282 242 248 279 114 158 250 275 263 265 266 273 262 229 242 255 257 256 253 252 254 250 255 261 257 253 254 256 256 255 255 253 255 258 256 256 256 254 252 249 245 242 239 237 235 234 235 234 233 232 231 230 230 230 229 228 229 230 230 229 229 229 229 231 232 233 234 234 235 236 235 232 230 228 225 221 221 220 221 221 222 227 229 229 226 223 223 228 239 253
330 207 256 259 237 287 312 288 244 219 264 152 194 244 283 265 263 263 265 268 259 257 262 262 256 254 250 252 251 254 263 263 258 254 253 253 253 253 252 256 260 260 258 257 253 250 248 245 240 237 236 236 236 235 233 232 230 229 229 229 229 229 228 229 230 229 229 229 229 229 230 231 232 233 233 234 235 234 233 230 228 224 220 219 218 218 219 222 226 225 222 221 225 229 231 236 248
274 177 251 261 242 274 303 292 295 175 161 244 234 239 266 269 273 275 270 268 270 267 266 263 257 256 250 249 254 255 259 261 259 255 252 251 252 254 255 258 262 262 260 257 253 250 248 245 239 237 237 236 236 234 232 229 227 227 227 228 228 228 228 229 229 228 228 229 229 229 230 230 231 232 232 232 233 233 233 231 228 222 218 215 215 216 218 221 223 224 220 218 222 229 233 237 246
235 197 237 275 261 254 263 268 300 6 255 264 273 259 265 272 277 276 269 258 256 259 260 262 260 257 252 249 253 254 256 257 256 256 256 255 255 258 259 260 261 261 259 256 252 249 247 244 240 237 235 234 233 231 228 224 222 222 223 224 225 226 227 227 228 227 228 228 228 229 229 229 229 230 231 230 231 231 231 229 226 220 216 212 212 215 217 219 219 220 221 220 222 226 232 236 241
204 200 204 264 284 264 255 255 264 325 294 277 269 263 269 279 283 279 274 260 244 254 259 260 261 257 254 252 251 254 255 255 256 260 262 262 260 260 262 263 262 259 256 253 250 247 243 240 235 233 232 230 227 222 219 216 214 214 215 217 218 220 223 224 225 226 227 228 229 229 229 228 229 229 229 229 229 229 229 227 223 217 213 210 211 215 216 217 215 215 218 220 223 223 224 226 230
197 225 274 267 277 278 269 271 272 178 250 273 260 263 274 280 283 281 279 274 253 252 256 260 262 257 250 248 250 253 252 256 267 269 266 266 265 266 269 267 262 256 252 247 244 242 239 235 230 228 227 223 218 213 210 208 204 203 206 210 213 216 218 220 222 224 226 228 229 229 228 228 228 228 228 227 227 227 227 225 221 215 211 211 212 216 219 217 215 216 218 219 222 221 218 217 219
272 278 294 287 272 277 276 279 290 215 185 266 268 279 286 282 282 280 279 278 265 257 254 258 261 255 248 247 250 254 256 263 274 273 269 268 272 276 273 266 255 248 249 243 238 238 235 230 228 227 223 217 215 212 209 207 206 206 208 211 213 215 217 219 221 224 226 227 227 227 228 228 228 227 227 226 226 225 225 223 219 215 212 211 213 217 221 219 215 215 216 215 216 220 220 218 215
261 266 291 290 273 290 287 280 311 356 172 271 293 303 290 281 279 278 277 270 265 260 247 249 258 256 249 245 248 253 261 269 269 270 272 273 284 285 270 255 241 238 243 237 231 231 228 225 224 223 220 216 213 212 210 209 211 212 212 213 214 215 218 221 223 225 225 224 225 226 227 227 226 226 226 225 224 223 224 223 218 215 213 211 212 215 218 217 215 214 216 216 212 213 219 218 215
236 229 253 272 273 322 286 282 349 326 254 271 295 301 282 279 281 278 271 253 255 264 254 250 252 250 248 247 253 251 252 260 264 268 274 285 298 287 256 234 220 217 214 212 212 216 219 220 220 218 217 216 212 211 211 211 210 208 208 213 215 214 217 221 221 224 224 223 224 224 224 225 224 225 224 224 224 222 223 223 219 216 214 213 213 214 215 215 214 214 216 217 214 208 210 213 212
234 213 213 248 260 240 242 284 336 315 290 282 311 309 279 277 295 290 281 250 254 269 270 270 259 248 248 249 254 247 241 248 255 265 276 297 301 279 258 243 216 200 183 179 189 204 215 215 216 217 216 216 213 211 209 207 204 199 198 200 202 206 211 213 213 217 221 221 221 220 220 222 223 224 224 224 223 222 223 224 221 218 216 215 215 216 217 217 216 216 216 217 217 213 209 208 208
283 226 212 226 244 243 252 298 335 336 320 337 14 340 287 283 293 285 289 301 290 274 255 268 270 266 262 255 252 245 241 244 249 262 275 293 291 276 275 261 236 218 169 156 171 189 211 215 212 213 214 214 212 210 207 204 201 197 192 187 185 189 195 201 207 212 215 215 217 217 219 221 222 223 224 224 223 222 222 223 222 220 219 217 216 217 219 220 219 219 219 219 220 218 214 207 207
297 249 210 217 231 249 265 283 315 329 290 284 76 58 275 300 300 275 276 315 301 290 264 261 268 271 265 261 262 252 248 250 253 262 266 273 274 269 270 261 243 230 154 159 185 185 200 210 209 211 211 211 209 207 206 203 201 200 198 197 196 195 198 206 213 216 217 217 217 218 219 221 222 222 223 224 223 222 222 222 222 222 221 220 218 218 219 221 223 224 223 223 222 219 215 212 211
263 257 166 177 204 232 231 221 229 239 282 294 137 155 256 297 290 265 302 314 301 299 297 281 278 285 276 265 266 256 248 249 254 263 259 251 255 250 251 255 249 242 210 189 193 199 206 205 206 209 209 209 208 206 205 205 204 203 203 205 206 207 209 214 217 218 219 219 217 217 219 219 220 221 222 223 223 222 221 221 222 222 222 221 219 219 221 223 226 227 225 224 223 220 218 219 217
255 250 107 133 178 206 190 185 251 268 340 312 221 155 242 276 276 287 335 307 292 298 307 306 311 318 316 311 304 286 260 246 237 243 249 245 242 238 242 252 255 247 230 205 192 194 206 207 203 204 206 207 207 206 206 207 208 208 207 207 209 213 216 220 219 217 216 216 214 216 217 218 219 219 221 223 223 222 221 221 222 222 223 222 221 222 223 225 227 228 225 223 222 221 222 224 224
256 117 98 34 92 111 110 168 260 3 334 280 242 174 241 273 282 299 339 270 260 283 304 301 300 303 319 335 332 324 321 301 264 243 246 246 243 245 251 256 257 249 224 202 191 188 193 204 204 203 205 206 207 208 208 208 209 211 211 211 211 213 214 216 216 213 212 212 212 213 215 217 218 218 219 222 223 222 222 222 222 223 224 224 223 224 224 225 227 229 228 225 224 223 223 225 227
62 75 45 345 9 26 27 94 68 33 263 272 272 213 205 282 284 267 237 230 239 288 312 301 298 303 320 336 331 327 332 323 307 280 262 262 261 259 270 272 244 114 171 180 182 185 183 192 202 205 207 207 208 209 210 211 212 213 215 216 215 214 212 209 206 205 205 206 208 211 214 217 218 219 219 220 222 222 222 222 222 224 225 226 226 226 226 226 228 229 229 227 226 227 227 227 228
98 65 37 344 329 356 10 1 42 187 248 272 296 254 181 233 266 257 252 267 262 257 280 285 291 299 311 322 321 320 319 308 301 286 274 291 301 287 303 322 334 126 154 172 178 183 183 189 195 200 205 208 210 211 212 214 214 216 218 219 219 217 214 210 207 206 205 205 207 210 213 214 216 218 218 219 220 220 220 220 221 223 224 226 227 227 228 228 229 229 228 228 228 229 229 229 229
106 102 66 20 330 339 339 310 231 228 254 271 283 261 205 236 261 273 277 279 275 253 246 257 269 281 293 303 306 312 314 304 291 281 276 283 288 284 293 304 289 215 188 186 191 195 194 195 199 204 207 210 212 215 216 217 217 219 219 220 221 220 218 216 214 213 212 210 211 210 210 211 213 214 215 218 219 219 219 219 220 222 224 226 227 228 229 229 228 228 228 229 229 230 231 231 231
138 152 136 135 192 312 282 273 285 277 270 277 281 267 262 269 267 259 259 268 277 275 255 248 255 266 272 282 295 305 302 290 276 271 276 274 265 266 269 264 261 243 216 202 200 203 202 202 206 212 214 214 217 219 219 220 220 221 221 222 222 221 220 220 220 220 219 217 215 214 215 215 214 216 217 220 221 221 221 221 222 223 225 226 227 228 229 229 229 229 229 230 231 232 233 234 235
173 161 135 155 169 181 249 243 242 281 292 294 308 285 215 224 272 265 254 261 272 271 258 248 249 255 259 273 287 291 284 275 264 259 265 267 263 267 277 271 263 254 235 215 207 207 212 216 218 221 221 219 219 220 219 220 221 221 222 223 224 224 225 225 226 226 225 223 220 219 220 220 220 222 224 224 224 222 221 222 222 224 225 226 227 229 229 230 230 230 230 231 233 234 234 235 238
219 137 111 180 186 163 232 221 185 259 309 292 263 240 221 226 285 290 287 284 284 283 281 272 263 266 273 273 268 262 263 263 256 249 256 264 263 264 270 267 264 261 251 234 220 216 221 225 227 228 227 223 221 221 221 222 223 223 224 224 226 227 228 228 228 228 227 227 225 224 223 224 226 227 228 227 225 224 223 223 223 224 226 227 228 229 230 230 230 229 230 231 232 234 234 236 238
186 128 164 216 178 128 133 267 338 46 295 278 253 262 288 320 293 291 316 321 305 307 315 296 277 279 278 266 262 254 253 256 254 245 250 263 264 256 251 249 255 258 252 240 229 223 225 226 226 226 225 222 222 222 224 225 225 226 228 229 230 230 230 231 230 229 229 228 227 227 226 227 228 228 228 227 226 225 225 225 224 225 226 227 228 229 230 231 231 231 231 232 233 234 235 237 239
117 174 213 197 122 81 91 267 339 30 261 277 299 269 285 340 288 306 338 324 301 302 314 309 302 308 290 276 279 271 257 258 269 265 258 262 261 258 252 246 248 249 249 245 236 229 228 226 225 225 224 224 225 227 229 231 231 232 234 233 233 234 233 233 233 232 231 228 226 226 225 227 228 228 228 228 227 226 225 225 225 226 226 227 228 229 230 231 231 231 231 233 235 236 235 236 238
109 205 229 110 129 129 94 167 257 288 264 286 303 291 269 198 226 288 294 288 293 302 313 320 316 318 313 302 300 292 282 273 272 268 261 256 248 248 246 244 247 248 251 254 250 245 242 238 236 235 236 238 239 239 237 238 238 238 239 238 236 236 235 234 234 232 230 227 226 225 225 226 227 227 227 226 225 224 224 224 224 226 226 227 228 229 230 230 229 230 231 232 234 234 234 235 237
32 324 330 2 157 170 156 153 166 179 246 291 311 314 274 214 209 223 247 263 279 293 306 313 303 297 298 298 296 294 290 273 263 261 260 257 249 249 248 249 254 255 258 261 262 261 258 257 255 252 250 249 248 246 243 242 240 239 239 238 237 236 235 235 233 231 230 228 228 227 227 228 227 227 226 225 225 224 224 224 224 225 225 226 227 228 229 229 229 229 230 232 233 232 233 234 236
149 213 247 277 220 132 164 202 140 140 163 215 307 304 275 241 194 204 232 250 249 260 284 291 292 295 295 292 284 284 284 272 261 258 261 263 264 267 269 269 268 267 266 264 264 267 267 264 261 257 255 252 249 248 246 245 243 239 238 238 238 236 235 234 233 232 231 231 231 230 230 230 229 228 226 225 225 225 225 225 224 225 226 227 227 228 229 228 228 228 229 231 232 232 232 234 235
168 191 193 187 175 121 116 262 265 107 147 178 161 288 281 264 190 213 233 242 243 246 255 273 289 292 293 296 282 269 278 280 278 275 277 278 277 281 284 279 271 265 264 264 263 266 266 265 262 258 256 253 250 247 247 248 247 242 240 240 239 237 234 233 231 231 232 231 231 231 231 230 228 228 227 225 225 225 225 225 225 225 226 227 228 228 229 228 227 227 228 230 231 230 231 232 233